[[{"header":{"parameterUnit":"m.s-1","parameterCategory":1,"la1":30.2991,"la2":30.254,"lo1":-89.0895,"lo2":-89.0444,"dy":0.0017,"dx":0.0017,"nx":28,"ny":28,"refTime":"2025-09-02T03:00:00:Z","depth":0,"parameterNumber":2,"parameterNumberName":"U-component_of_WINDS"},"data":[0,0,0,0,0,0,0,0,0,0,0,0,0,0,0,0,0,0,0,0,0,0,0,0,0,0,0,0,0,0,0,0,0,0,0,0,0,0,0,0,0,0,0,0,0,0,0,0,0,0,0,0,0,0,0,0,0,0,-4.2468,-4.2467,0,-4.2459,-4.2459,-4.2459,-4.2347,-4.2344,-4.2341,-4.2339,-4.233,-4.2332,-4.2335,0,0,0,0,0,0,0,0,0,0,0,0,0,-4.2387,-4.2389,-4.2468,-4.2467,-4.2467,-4.2459,-4.2459,-4.2459,-4.2347,-4.2344,-4.234,-4.2337,-4.2329,-4.2332,-4.2335,0,0,0,0,0,0,0,0,0,0,0,0,0,-4.2405,-4.239,-4.2468,-4.2411,-4.2406,-4.2459,-4.2459,-4.2459,-4.2348,-4.2344,-4.234,-4.2336,-4.2328,-4.2332,-4.2335,-4.2443,0,0,-4.2347,-4.2348,0,0,0,0,0,0,0,0,-4.2404,-4.2408,-4.2419,-4.2415,-4.2409,-4.24,-4.2428,-4.2454,-4.2349,-4.237,-4.2338,-4.2334,-4.2357,-4.2358,-4.2366,-4.2443,-4.2442,-4.2347,-4.2349,-4.2351,-4.2352,0,0,0,0,0,0,0,-4.2403,-4.2408,-4.2464,-4.2419,-4.2413,-4.2386,-4.2384,-4.2432,-4.2387,-4.2368,-4.236,-4.236,-4.2353,-4.2362,-4.2365,-4.2442,-4.2347,-4.235,-4.2352,-4.2354,-4.2608,-4.2612,0,0,0,0,0,0,-4.241,-4.2408,-4.2464,-4.2464,-4.2396,-4.2391,-4.2388,-4.2407,-4.2386,-4.2379,-4.2364,-4.2355,-4.2358,-4.236,-4.2364,-4.2489,-4.2351,-4.2354,-4.2356,-4.2604,-4.2609,-4.2614,0,0,0,0,0,0,-4.2408,-4.2416,-4.2465,-4.2434,-4.2438,-4.2397,-4.2419,-4.2409,-4.2418,-4.2383,-4.2375,-4.2381,-4.2355,-4.2359,-4.2424,-4.2487,-4.2356,-4.2359,-4.2598,-4.2605,-4.2612,-4.274,0,0,0,0,0,0,-4.2407,-4.2416,-4.2456,-4.2435,-4.244,-4.2526,-4.2422,-4.2412,-4.2425,-4.2413,-4.2398,-4.2391,-4.2352,-4.242,-4.2428,-4.249,-4.2362,-4.2592,-4.2601,-4.2609,-4.273,-4.275,-4.2768,0,0,0,0,0,-4.2404,-4.2493,-4.2459,-4.2466,-4.2489,-4.253,-4.2532,-4.2485,-4.243,-4.247,-4.2448,-4.2392,-4.2479,-4.2427,-4.2436,-4.25,-4.2588,-4.2599,-4.2609,-4.2721,-4.2746,-4.2767,0,0,0,0,0,0,-4.2522,-4.2489,-4.2451,-4.2535,-4.2536,-4.2511,-4.256,-4.2513,-4.2529,-4.2518,-4.2459,-4.2456,-4.2531,-4.2522,-4.2465,-4.2603,-4.2524,-4.2536,-4.2607,-4.263,-4.2649,-4.2649,-4.2365,0,0,0,0,0,-4.2558,-4.2593,-4.2562,-4.264,-4.2642,-4.2602,-4.2617,-4.2581,-4.2579,-4.2579,-4.2562,-4.2562,-4.259,-4.2609,-4.2633,-4.2728,-4.2724,-4.2776,-4.2795,-4.2811,-4.2823,-4.2873,-4.2896,-4.2648,-4.2648,-4.2648,0,0,-4.2632,-4.2618,-4.2644,-4.2663,-4.2659,-4.2698,-4.2602,-4.2646,-4.2674,-4.2586,-4.2647,-4.2635,-4.2631,-4.2713,-4.2748,-4.2707,-4.289,-4.2824,-4.2837,-4.284,-4.2886,-4.291,-4.2931,-4.2655,-4.2654,-4.2653,0,0,-4.2786,-4.278,-4.2844,-4.2842,-4.2838,-4.2811,-4.2826,-4.2808,-4.2797,-4.2857,-4.2792,-4.2824,-4.2873,-4.2873,-4.288,-4.3037,-4.2986,-4.3046,-4.3145,-4.3195,-4.3215,-4.3232,-4.3289,-4.331,-4.3058,-4.3058,-4.3059,0,-4.2879,-4.2934,-4.2883,-4.2932,-4.2942,-4.2864,-4.2929,-4.293,-4.2934,-4.2943,-4.2898,-4.2958,-4.295,-4.3031,-4.3069,-4.3077,-4.3094,-4.3048,-4.3216,-4.3233,-4.3248,-4.3301,-4.3323,-4.3066,-4.3065,-4.3064,-4.3063,0,-4.3049,-4.3088,-4.314,-4.3147,-4.3163,-4.322,-4.3177,-4.32,-4.3163,-4.3141,-4.3204,-4.3192,-4.3212,-4.3229,-4.3192,-4.3305,-4.328,-4.3227,-4.3146,-4.328,-4.3329,-4.3349,-4.3076,-4.3074,-4.3071,-4.307,0,0,-4.3276,-4.3254,-4.3274,-4.3277,-4.3267,-4.3296,-4.335,-4.337,-4.3391,-4.3397,-4.344,-4.3484,-4.3435,-4.3443,-4.3406,-4.345,-4.3576,-4.3391,-4.339,-4.3426,-4.37,-4.3741,-4.3765,-4.3542,-4.3546,-4.3549,-4.37,0,-4.3426,-4.3516,-4.3472,-4.3568,-4.3604,-4.3531,-4.3577,-4.3577,-4.3558,-4.3586,-4.3564,-4.3596,-4.3528,-4.3533,-4.3573,-4.3552,-4.363,-4.3541,-4.3583,-4.3585,-4.3586,-4.379,-4.3833,-4.3977,-4.3719,-4.3722,-4.3725,0,-4.3612,-4.3627,-4.3726,-4.3711,-4.3724,-4.3767,-4.3782,-4.381,-4.3808,-4.3791,-4.3801,-4.3754,-4.3806,-4.3727,-4.3797,-4.3738,-4.3752,-4.3745,-4.3749,-4.3751,-4.3663,-4.3799,-4.4021,-4.4043,-4.3754,-4.3752,-4.375,0,-4.3769,-4.3813,-4.3878,-4.3883,-4.3866,-4.3898,-4.3893,-4.3887,-4.3902,-4.3915,-4.3925,-4.3944,-4.3955,-4.3971,-4.3932,-4.3877,-4.4009,-4.3925,-4.3997,-4.3998,-4.4027,-4.4026,-4.4256,-4.4037,-4.4037,-4.4036,-4.4036,0,-4.3941,-4.4005,-4.3949,-4.3989,-4.4059,-4.4008,-4.4078,-4.4065,-4.406,-4.4097,-4.4035,-4.4071,-4.4016,-4.4047,-4.4016,-4.408,-4.4086,-4.4074,-4.4065,-4.4079,-4.4081,-4.4088,-4.4077,-4.4042,-4.4041,-4.404,-4.4039,0,-4.4128,-4.4093,-4.4159,-4.4139,-4.4135,-4.4188,-4.417,-4.4206,-4.4183,-4.4231,-4.4239,-4.4203,-4.4236,-4.4198,-4.4228,-4.4207,-4.4294,-4.427,-4.4295,-4.4288,-4.4362,-4.4356,-4.4604,-4.4635,-4.4396,-4.4399,-4.4401,0,-4.424,-4.4287,-4.4272,-4.4292,-4.4291,-4.4324,-4.434,-4.4291,-4.431,-4.4312,-4.4349,-4.4377,-4.4396,-4.4453,-4.443,-4.4452,-4.4429,-4.4514,-4.4432,-4.4445,-4.443,-4.4428,-4.4433,-4.4531,-4.4534,-4.4537,-4.4538,0,-4.4442,-4.4423,-4.4447,-4.4467,-4.4487,-4.45,-4.4507,-4.4528,-4.4478,-4.4502,-4.4535,-4.455,-4.4581,-4.461,-4.4626,-4.4621,-4.4572,-4.4565,-4.4582,-4.4598,-4.461,-4.4605,-4.4341,-4.4559,-4.4557,-4.4556,-4.4554,-4.4554,-4.4595,-4.4634,-4.463,-4.466,-4.4661,-4.467,-4.4704,-4.4685,-4.4712,-4.4733,-4.4703,-4.4745,-4.4743,-4.476,-4.4761,-4.4793,-4.4756,-4.4782,-4.4788,-4.4795,-4.4806,-4.4606,-4.4795,-4.4795,-4.4794,-4.4794,-4.4793,0,-4.4794,-4.4788,-4.4816,-4.483,-4.4854,-4.4806,-4.4812,-4.4835,-4.4873,-4.4875,-4.4896,-4.4935,-4.4963,-4.4942,-4.4965,-4.4995,-4.4974,-4.5003,-4.5,-4.5,-4.4838,-4.482,-4.502,-4.502,-4.502,-4.502,-4.502,-4.502,-4.4901,-4.4965,-4.4945,-4.501,-4.5003,-4.5043,-4.5051,-4.506,-4.5061,-4.5108,-4.5131,-4.5117,-4.511,-4.5133,-4.5157,-4.515,-4.5162,-4.52,-4.5185,-4.5034,-4.5011,-4.499,-4.4973,-4.5203,-4.5203,-4.5345,-4.5346,-4.5347]},{"header":{"parameterUnit":"m.s-1","parameterCategory":1,"la1":30.2991,"la2":30.254,"lo1":-89.0895,"lo2":-89.0444,"dy":0.0017,"dx":0.0017,"nx":28,"ny":28,"refTime":"2025-09-02T03:00:00:Z","depth":0,"parameterNumber":3,"parameterNumberName":"V-component_of_WINDS"},"data":[0,0,0,0,0,0,0,0,0,0,0,0,0,0,0,0,0,0,0,0,0,0,0,0,0,0,0,0,0,0,0,0,0,0,0,0,0,0,0,0,0,0,0,0,0,0,0,0,0,0,0,0,0,0,0,0,0,0,-0.1751,-0.1751,0,-0.1756,-0.1756,-0.1756,-0.1722,-0.1721,-0.172,-0.1719,-0.1727,-0.1728,-0.1729,0,0,0,0,0,0,0,0,0,0,0,0,0,-0.1714,-0.1715,-0.1751,-0.1751,-0.1751,-0.1756,-0.1756,-0.1756,-0.1722,-0.1721,-0.1719,-0.1718,-0.1726,-0.1728,-0.1729,0,0,0,0,0,0,0,0,0,0,0,0,0,-0.1726,-0.1715,-0.1751,-0.1734,-0.1733,-0.1756,-0.1756,-0.1756,-0.1722,-0.1721,-0.1719,-0.1718,-0.1726,-0.1728,-0.1729,-0.1769,0,0,-0.1734,-0.1735,0,0,0,0,0,0,0,0,-0.1725,-0.1727,-0.1737,-0.1736,-0.1734,-0.1737,-0.1746,-0.1761,-0.1722,-0.1726,-0.1719,-0.1717,-0.1731,-0.1733,-0.1737,-0.1769,-0.177,-0.1735,-0.1736,-0.1736,-0.1737,0,0,0,0,0,0,0,-0.1724,-0.1727,-0.1753,-0.1737,-0.1735,-0.1728,-0.1728,-0.1748,-0.1737,-0.1726,-0.1723,-0.1724,-0.173,-0.1735,-0.1737,-0.177,-0.1735,-0.1736,-0.1737,-0.1738,-0.1836,-0.1837,0,0,0,0,0,0,-0.1725,-0.1726,-0.1753,-0.1753,-0.1726,-0.1729,-0.1729,-0.1737,-0.1737,-0.1735,-0.1726,-0.1723,-0.1733,-0.1735,-0.1737,-0.1784,-0.1736,-0.1738,-0.1739,-0.1834,-0.1836,-0.1838,0,0,0,0,0,0,-0.1725,-0.1728,-0.1753,-0.1739,-0.1741,-0.1732,-0.1741,-0.1738,-0.1743,-0.1736,-0.1735,-0.1733,-0.1732,-0.1735,-0.1761,-0.1784,-0.1739,-0.174,-0.1832,-0.1835,-0.1837,-0.1879,0,0,0,0,0,0,-0.1724,-0.1728,-0.1743,-0.1739,-0.1742,-0.1776,-0.1742,-0.1739,-0.1746,-0.1742,-0.1743,-0.1741,-0.1731,-0.1759,-0.1763,-0.1786,-0.1742,-0.183,-0.1833,-0.1836,-0.1875,-0.1882,-0.1888,0,0,0,0,0,-0.1722,-0.1755,-0.1743,-0.1747,-0.176,-0.1778,-0.1779,-0.1766,-0.1748,-0.1763,-0.1758,-0.1741,-0.178,-0.1762,-0.1766,-0.179,-0.1829,-0.1833,-0.1836,-0.1873,-0.1881,-0.1888,0,0,0,0,0,0,-0.1762,-0.1754,-0.1742,-0.1773,-0.1776,-0.1772,-0.1791,-0.1776,-0.1785,-0.1781,-0.1765,-0.1765,-0.1795,-0.1795,-0.1774,-0.1828,-0.1801,-0.1806,-0.1828,-0.1836,-0.1842,-0.1843,-0.1743,0,0,0,0,0,-0.1774,-0.1788,-0.1781,-0.181,-0.1812,-0.1801,-0.1808,-0.1797,-0.18,-0.1802,-0.1799,-0.1803,-0.1817,-0.1826,-0.1837,-0.1874,-0.1875,-0.1893,-0.1899,-0.1904,-0.1909,-0.193,-0.1938,-0.185,-0.185,-0.1849,0,0,-0.18,-0.1797,-0.1807,-0.1817,-0.1819,-0.1834,-0.1802,-0.182,-0.1832,-0.1805,-0.183,-0.1828,-0.1832,-0.1864,-0.1878,-0.1864,-0.1933,-0.1909,-0.1913,-0.1915,-0.1934,-0.1942,-0.195,-0.1852,-0.1852,-0.1851,0,0,-0.1856,-0.1854,-0.1879,-0.188,-0.1881,-0.1874,-0.188,-0.1877,-0.1875,-0.1899,-0.1879,-0.1893,-0.1916,-0.1919,-0.1924,-0.198,-0.1965,-0.1984,-0.2019,-0.2039,-0.2046,-0.2052,-0.2073,-0.2081,-0.1988,-0.1989,-0.1989,0,-0.1888,-0.191,-0.1893,-0.1913,-0.1918,-0.1892,-0.1917,-0.192,-0.1926,-0.193,-0.1914,-0.1943,-0.1943,-0.1976,-0.199,-0.1994,-0.2001,-0.1985,-0.2046,-0.2052,-0.2057,-0.2077,-0.2085,-0.1991,-0.1991,-0.199,-0.199,0,-0.1951,-0.1966,-0.1986,-0.1991,-0.1998,-0.2021,-0.2008,-0.2017,-0.2006,-0.2,-0.2026,-0.2025,-0.2036,-0.2043,-0.2032,-0.2075,-0.2066,-0.2048,-0.2022,-0.2068,-0.2087,-0.2095,-0.1994,-0.1994,-0.1993,-0.1992,0,0,-0.2033,-0.2028,-0.2036,-0.2038,-0.2037,-0.2049,-0.207,-0.208,-0.2089,-0.2094,-0.2112,-0.2131,-0.2114,-0.212,-0.2109,-0.2126,-0.2172,-0.2106,-0.2106,-0.212,-0.222,-0.2235,-0.2244,-0.2161,-0.2162,-0.2163,-0.222,0,-0.2089,-0.2124,-0.2109,-0.2146,-0.2161,-0.2136,-0.2154,-0.2156,-0.2151,-0.2163,-0.2158,-0.2172,-0.2148,-0.2152,-0.2167,-0.2163,-0.2192,-0.2158,-0.2179,-0.218,-0.2181,-0.2254,-0.227,-0.2324,-0.2227,-0.2229,-0.2229,0,-0.2159,-0.2165,-0.2204,-0.22,-0.2206,-0.2223,-0.2231,-0.2242,-0.2244,-0.2239,-0.2245,-0.223,-0.2251,-0.2222,-0.2252,-0.2229,-0.2236,-0.2235,-0.2237,-0.224,-0.2209,-0.2261,-0.234,-0.2349,-0.224,-0.224,-0.2239,0,-0.2217,-0.2235,-0.2261,-0.2263,-0.2259,-0.2272,-0.2271,-0.2271,-0.2278,-0.2285,-0.229,-0.2299,-0.2305,-0.2313,-0.2302,-0.2281,-0.2333,-0.2303,-0.2331,-0.2332,-0.2345,-0.2345,-0.2429,-0.2346,-0.2346,-0.2346,-0.2346,0,-0.2282,-0.2307,-0.2287,-0.2303,-0.233,-0.2313,-0.234,-0.2337,-0.2337,-0.2352,-0.233,-0.2346,-0.2328,-0.2342,-0.2332,-0.2359,-0.2361,-0.2359,-0.2357,-0.2362,-0.2363,-0.2368,-0.2365,-0.2348,-0.2348,-0.2347,-0.2347,0,-0.2353,-0.2341,-0.2367,-0.2361,-0.2359,-0.238,-0.2375,-0.239,-0.2382,-0.2402,-0.2406,-0.2395,-0.2409,-0.2398,-0.2412,-0.2406,-0.2442,-0.2433,-0.2441,-0.244,-0.2469,-0.2467,-0.2561,-0.2573,-0.2481,-0.2482,-0.2483,0,-0.2397,-0.2415,-0.241,-0.2419,-0.2419,-0.2432,-0.2439,-0.2422,-0.243,-0.2433,-0.2448,-0.246,-0.247,-0.2495,-0.2488,-0.25,-0.2492,-0.2524,-0.2494,-0.2499,-0.2495,-0.2495,-0.2497,-0.2532,-0.2533,-0.2534,-0.2534,0,-0.2475,-0.2468,-0.2478,-0.2486,-0.2495,-0.25,-0.2504,-0.2512,-0.2495,-0.2505,-0.2519,-0.2526,-0.2541,-0.2554,-0.2563,-0.2563,-0.2547,-0.2543,-0.2551,-0.2558,-0.2562,-0.2562,-0.246,-0.2542,-0.2541,-0.2541,-0.254,-0.254,-0.2535,-0.2551,-0.255,-0.2562,-0.2562,-0.2567,-0.258,-0.2574,-0.2585,-0.2595,-0.2584,-0.2602,-0.2603,-0.2613,-0.2615,-0.2629,-0.2616,-0.2626,-0.2629,-0.2632,-0.2637,-0.2558,-0.263,-0.263,-0.263,-0.2629,-0.2629,0,-0.2614,-0.2612,-0.2623,-0.2629,-0.2639,-0.262,-0.2623,-0.2633,-0.2649,-0.265,-0.266,-0.2676,-0.2689,-0.2683,-0.2694,-0.2707,-0.27,-0.271,-0.2711,-0.2711,-0.2647,-0.2641,-0.2716,-0.2716,-0.2716,-0.2716,-0.2716,-0.2716,-0.2657,-0.2682,-0.2675,-0.27,-0.2698,-0.2715,-0.2718,-0.2722,-0.2723,-0.2743,-0.2753,-0.2748,-0.2747,-0.2758,-0.2769,-0.2767,-0.2773,-0.2787,-0.2782,-0.2724,-0.2715,-0.2707,-0.2701,-0.2788,-0.2788,-0.2845,-0.2845,-0.2846]}]]